Weather History for Fort Meade, MD

Change the Weather History Date:

Friday, June 28, 2013

  Actual Average (KBWI) Record (KBWI)
Temperature  
Mean Temperature 76 °F 76 °F  
Max Temperature 86 °F 86 °F 99 °F (2010)
Min Temperature 66 °F 65 °F 53 °F (1970)
Degree Days  
Heating Degree Days 0 0  
Month to date heating degree days 13  
Since 1 June heating degree days 13  
Since 1 July heating degree days 4762  
Cooling Degree Days 11 11  
Month to date cooling degree days 217  
Year to date cooling degree days 301  
Since 1 June cooling degree days 217  
Growing Degree Days 26 (Base 50)    
Moisture  
Dew Point 68 °F    
Average Humidity 84    
Maximum Humidity 100    
Minimum Humidity 55    
Precipitation  
Precipitation 0.00 in 0.11 in 4.47 in (1885)
Month to date precipitation 3.23  
Year to date precipitation 20.26  
Snow  
Snow 0.00 in 0.00 in - ()
Month to date snowfall 0.0  
Since 1 July snowfall 20.1  
Snow Depth -    
Sea Level Pressure  
Sea Level Pressure 29.58 in    
Wind  
Wind Speed 3 mph (SW)    
Max Wind Speed 13 mph    
Max Gust Speed 21 mph    
Visibility 7 miles    
Events      
T = Trace of Precipitation, MM = Missing Value Source: NWS Daily Summary

Daily Weather History Graph

Daily Weather History Graph

Search for Another Location

Airport:

Trip Planner

Search our weather history database for the weather conditions in past years. The results will help you decide how hot, cold, wet, or windy it might be!

Date:

Astronomy

Jun. 28, 2013 Rise Set
Actual Time 5:43 AM EDT 8:37 PM EDT
Civil Twilight 5:11 AM EDT 9:09 PM EDT
Nautical Twilight 4:30 AM EDT 9:49 PM EDT
Astronomical Twilight 3:44 AM EDT 10:36 PM EDT
Moon No Moon Rise 11:45 AM EDT (6/28)
Length of Visible Light 15h 57m
Length of Day
14h 53m
Waning Gibbous, 66% of the Moon is Illuminated
Jun 28
Waning Gibbous
Jun 30
Last Quarter
Jul 8
New
Jul 15
First Quarter
Jul 22
Full

Hourly Weather History & Observations

Time (EDT) Temp. Heat Index Dew Point Humidity Pressure Visibility Wind Dir Wind Speed Gust Speed Precip Events Conditions
12:09 AM 69.8 °F - 68.0 °F 94% 29.66 in 10.0 mi SSW 3.5 mph - N/A   Scattered Clouds
12:30 AM 69.8 °F - 68.0 °F 94% 29.65 in 10.0 mi Calm Calm - N/A   Mostly Cloudy
12:51 AM 69.8 °F - 68.0 °F 94% 29.64 in 10.0 mi Calm Calm - N/A   Overcast
1:09 AM 69.8 °F - 68.0 °F 94% 29.64 in 10.0 mi SSW 3.5 mph - N/A   Mostly Cloudy
1:30 AM 69.8 °F - 68.0 °F 94% 29.63 in 7.0 mi Calm Calm - N/A   Scattered Clouds
1:51 AM 69.8 °F - 68.0 °F 94% 29.62 in 7.0 mi Calm Calm - N/A   Clear
2:30 AM 68.0 °F - 66.2 °F 94% 29.61 in 5.0 mi Calm Calm - N/A   Clear
2:51 AM 68.0 °F - 64.4 °F 88% 29.60 in 7.0 mi Calm Calm - N/A   Clear
3:09 AM 68.0 °F - 64.4 °F 88% 29.60 in 7.0 mi Calm Calm - N/A   Clear
3:30 AM 68.0 °F - 64.4 °F 88% 29.60 in 7.0 mi Calm Calm - N/A   Clear
3:51 AM 68.0 °F - 64.4 °F 88% 29.60 in 7.0 mi Calm Calm - N/A   Clear
4:09 AM 68.0 °F - 64.4 °F 88% 29.60 in 7.0 mi Calm Calm - N/A   Clear
4:30 AM 66.2 °F - 64.4 °F 94% 29.60 in 7.0 mi Calm Calm - N/A   Clear
4:51 AM 66.2 °F - 64.4 °F 94% 29.60 in 7.0 mi WSW 3.5 mph - N/A   Scattered Clouds
5:12 AM 66.2 °F - 64.4 °F 94% 29.60 in 5.0 mi WSW 3.5 mph - N/A   Scattered Clouds
5:30 AM 68.0 °F - 64.4 °F 88% 29.60 in 5.0 mi SW 4.6 mph - N/A   Clear
5:51 AM 68.0 °F - 64.4 °F 88% 29.61 in 4.0 mi Calm Calm - N/A   Clear
6:12 AM 68.0 °F - 64.4 °F 88% 29.61 in 4.0 mi Calm Calm - N/A   Clear
6:30 AM 68.0 °F - 66.2 °F 94% 29.62 in 5.0 mi WSW 3.5 mph - N/A   Clear
6:51 AM 68.0 °F - 68.0 °F 100% 29.62 in 5.0 mi WSW 3.5 mph - N/A   Clear
7:12 AM 69.8 °F - 68.0 °F 94% 29.62 in 7.0 mi West 4.6 mph - N/A   Clear
7:30 AM 69.8 °F - 68.0 °F 94% 29.62 in 10.0 mi Calm Calm - N/A   Clear
7:51 AM 71.6 °F - 69.8 °F 94% 29.61 in 10.0 mi Calm Calm - N/A   Clear
8:12 AM 73.4 °F - 69.8 °F 88% 29.60 in 10.0 mi West 3.5 mph - N/A   Clear
8:30 AM 77.0 °F - 69.8 °F 78% 29.61 in 10.0 mi WSW 4.6 mph - N/A   Clear
8:51 AM 77.0 °F - 69.8 °F 78% 29.61 in 10.0 mi West 5.8 mph - N/A   Clear
9:12 AM 78.8 °F - 69.8 °F 74% 29.61 in 10.0 mi WSW 8.1 mph - N/A   Clear
9:30 AM 80.6 °F 83.2 °F 68.0 °F 65% 29.60 in 10.0 mi WSW 5.8 mph - N/A   Clear
9:51 AM 80.6 °F 83.2 °F 68.0 °F 65% 29.60 in 10.0 mi West 6.9 mph - N/A   Clear
10:12 AM 82.4 °F 85.4 °F 68.0 °F 62% 29.60 in 10.0 mi West 8.1 mph - N/A   Clear
10:30 AM 80.6 °F 83.2 °F 68.0 °F 65% 29.59 in 10.0 mi West 8.1 mph - N/A   Scattered Clouds
10:51 AM 80.6 °F 83.2 °F 68.0 °F 65% 29.60 in 10.0 mi West 6.9 mph - N/A   Mostly Cloudy
11:12 AM 82.4 °F 85.4 °F 68.0 °F 62% 29.59 in 10.0 mi West 9.2 mph - N/A   Scattered Clouds
11:30 AM 84.2 °F 87.3 °F 68.0 °F 58% 29.60 in 10.0 mi West 12.7 mph 18.4 mph N/A   Clear
11:51 AM 82.4 °F 85.4 °F 68.0 °F 62% 29.59 in 10.0 mi WSW 10.4 mph - N/A   Scattered Clouds
12:12 PM 82.4 °F 86.3 °F 69.8 °F 66% 29.59 in 10.0 mi WSW 5.8 mph - N/A   Mostly Cloudy
12:30 PM 82.4 °F 85.4 °F 68.0 °F 62% 29.59 in 10.0 mi West 8.1 mph - N/A   Scattered Clouds
12:51 PM 82.4 °F 86.3 °F 69.8 °F 66% 29.59 in 10.0 mi SW 5.8 mph - N/A   Clear
1:12 PM 84.2 °F 87.3 °F 68.0 °F 58% 29.58 in 10.0 mi West 5.8 mph - N/A   Clear
1:33 PM 84.2 °F 87.3 °F 68.0 °F 58% 29.57 in 10.0 mi South 6.9 mph - N/A   Scattered Clouds
1:51 PM 82.4 °F 86.3 °F 69.8 °F 66% 29.57 in 10.0 mi SW 6.9 mph - N/A   Mostly Cloudy
2:12 PM 84.2 °F 88.4 °F 69.8 °F 62% 29.56 in 10.0 mi SSW 10.4 mph - N/A   Mostly Cloudy
2:33 PM 86.0 °F 89.4 °F 68.0 °F 55% 29.55 in 10.0 mi SW 8.1 mph - N/A   Scattered Clouds
2:51 PM 86.0 °F 89.4 °F 68.0 °F 55% 29.53 in 10.0 mi South 8.1 mph - N/A   Clear
3:12 PM 80.6 °F 83.9 °F 69.8 °F 70% 29.52 in 10.0 mi South 4.6 mph - N/A   Scattered Clouds
3:33 PM 80.6 °F 83.9 °F 69.8 °F 70% 29.52 in 10.0 mi Calm Calm - N/A   Scattered Clouds
3:51 PM 77.0 °F - 71.6 °F 83% 29.53 in 3.0 mi SW 5.8 mph - N/A   Mostly Cloudy
4:12 PM 73.4 °F - 69.8 °F 88% 29.55 in 1.0 mi WSW 12.7 mph 18.4 mph N/A   Overcast
4:33 PM 71.6 °F - 69.8 °F 94% 29.53 in 4.0 mi SSW 12.7 mph 20.7 mph N/A   Mostly Cloudy
4:51 PM 71.6 °F - 68.0 °F 88% 29.53 in 7.0 mi SSW 5.8 mph - N/A   Scattered Clouds
5:12 PM 69.8 °F - 68.0 °F 94% 29.55 in 7.0 mi SSW 6.9 mph - N/A   Mostly Cloudy
5:33 PM 69.8 °F - 66.2 °F 88% 29.52 in 10.0 mi SSE 4.6 mph - N/A   Scattered Clouds
5:51 PM 69.8 °F - 68.0 °F 94% 29.53 in 5.0 mi SW 4.6 mph - N/A   Scattered Clouds
6:12 PM 69.8 °F - 66.2 °F 88% 29.55 in 5.0 mi SW 8.1 mph - N/A   Mostly Cloudy
6:33 PM 68.0 °F - 66.2 °F 94% 29.52 in 4.0 mi SSE 3.5 mph - N/A   Overcast
6:51 PM 68.0 °F - 66.2 °F 94% 29.53 in 3.0 mi WSW 3.5 mph - N/A   Overcast
7:12 PM 69.8 °F - 68.0 °F 94% 29.56 in 3.0 mi SSW 4.6 mph - N/A   Mostly Cloudy
7:33 PM 69.8 °F - 68.0 °F 94% 29.55 in 5.0 mi SSE 3.5 mph - N/A   Scattered Clouds
7:51 PM 69.8 °F - 68.0 °F 94% 29.55 in 5.0 mi South 4.6 mph - N/A   Mostly Cloudy
8:12 PM 69.8 °F - 68.0 °F 94% 29.56 in 4.0 mi Calm Calm - N/A   Overcast
8:33 PM 69.8 °F - 68.0 °F 94% 29.55 in 4.0 mi Calm Calm - N/A   Overcast
8:51 PM 69.8 °F - 68.0 °F 94% 29.56 in 2.5 mi West 3.5 mph - N/A   Mostly Cloudy
9:12 PM 69.8 °F - 68.0 °F 94% 29.57 in 2.5 mi Calm Calm - N/A   Scattered Clouds
9:33 PM 69.8 °F - 68.0 °F 94% 29.59 in 3.0 mi South 4.6 mph - N/A   Mostly Cloudy
9:54 PM 69.8 °F - 68.0 °F 94% 29.59 in 4.0 mi Calm Calm - N/A   Scattered Clouds
10:12 PM 69.8 °F - 68.0 °F 94% 29.59 in 2.0 mi Calm Calm - N/A   Mostly Cloudy
10:33 PM 69.8 °F - 68.0 °F 94% 29.58 in 2.0 mi Calm Calm - N/A   Mostly Cloudy
10:54 PM 69.8 °F - 68.0 °F 94% 29.58 in 3.0 mi SSE 3.5 mph - N/A   Mostly Cloudy
11:12 PM 69.8 °F - 68.0 °F 94% 29.58 in 2.5 mi South 3.5 mph - N/A   Scattered Clouds
11:33 PM 69.8 °F - 68.0 °F 94% 29.59 in 3.0 mi SSW 4.6 mph - N/A   Scattered Clouds
11:54 PM 68.0 °F - 68.0 °F 100% 29.59 in 3.0 mi Calm Calm - N/A   Scattered Clouds